Regional Weather Roundup
Issued by NWS Spokane, WA

Home | Current Version | Previous Version | Text Only | Print | Product List | Glossary On
Versions: 1 2 3 4 5 6 7 8 9 10 11 12 13 14 15 16 17 18 19 20 21 22 23 24 25 26 27 28 29 30 31 32 33 34 35 36 37 38 39 40 41 42 43 44 45 46 47 48 49 50
000
NZUS01 KOTX 250010
RWROTX
EASTERN WASHINGTON/NORTHERN IDAHO ROUNDUP
NATIONAL WEATHER SERVICE, SPOKANE WA
500 PM PDT FRI OCT 24 2014

Note: "fair" indicated few or no clouds below 12,000 feet with no
significant weather and/or obstructions to visibility.

...NORTHEAST WASHINGTON AND NORTHERN IDAHO PANHANDLE...

CITY           SKY/WX    TMP DP  RH WIND       PRES   REMARKS
SPOKANE INTL   CLOUDY    52  43  71 NE8       30.04F
SPOKANE DOWNTO CLOUDY    54  44  69 N3        30.04F
COEUR D ALENE  CLOUDY    54  41  62 NE9       30.04F
DEER PARK      CLOUDY    52  42  69 NE7       30.06F
SANDPOINT      CLOUDY    50  41  71 NE5       30.08S

...SOUTHEAST WASHINGTON AND SOUTHERN IDAHO PANHANDLE...

CITY           SKY/WX    TMP DP  RH WIND       PRES   REMARKS
WALLA WALLA    LGT RAIN  54  52  93 S5        29.97F FOG
PULLMAN/MOSCOW LGT RAIN  52  45  77 E12       30.04F
LEWISTON       LGT RAIN  55  50  83 NE6       30.00F
LOWELL           N/A     51  50  96 CALM      30.06F

...COLUMBIA BASIN...

CITY           SKY/WX    TMP DP  RH WIND       PRES   REMARKS
EPHRATA        CLOUDY    54  43  66 N7        30.00F
MOSES LAKE     CLOUDY    56  45  66 NE5       30.01F
TRI CITIES     LGT RAIN  54  52  93 NW6       30.00F
HERMISTON      LGT RAIN  54  49  83 NE7       29.96F
PENDLETON      LGT RAIN  52  47  83 NE15      29.95F

...EAST SLOPES CASCADES...

CITY           SKY/WX    TMP DP  RH WIND       PRES   REMARKS
THE DALLES     LGT RAIN  52  49  89 SW3       29.96F
YAKIMA         LGT RAIN  51  46  83 SW3       30.00F
ELLENSBURG     CLOUDY    51  40  65 CALM      29.99F
WENATCHEE      CLOUDY    53  39  59 SW5       30.01F
OMAK           CLOUDY    52  38  58 CALM      30.05S

...SOUTHERN BRITISH COLUMBIA...

CITY           SKY/WX    TMP DP  RH WIND       PRES   REMARKS
PENTICTON      CLOUDY    50  39  66 N7        30.04F
CASTLEGAR      CLOUDY    52  41  66 S7        30.06F
CRANBROOK      MOCLDY    48  32  53 S8        30.07R

...WESTERN MONTANA...

CITY           SKY/WX    TMP DP  RH WIND       PRES   REMARKS
MISSOULA       LGT RAIN  49  45  86 S5        30.11S

...NEIGHBORING CITIES...

CITY           SKY/WX    TMP DP  RH WIND       PRES   REMARKS
SEATTLE        CLOUDY    56  46  69 N13       29.89F
CALGARY        MOCLDY    48  12  23 W18G28    29.96R



USA.gov is the U.S. government's official web portal to all federal, state and local government web resources and services.